| time (UTC) | temp F | wind direction | speed knots | gust knots | rain 1hr in | rain 24hr in | rain mn in | humidity % | barometer mb |
| 20260502163049 | 53 | 269 | 0.9 | 2.6 | 0.00 | 0.00 | 0.00 | 47 | 1007.4 |
| 20260502161507 | 53 | 42 | 0.9 | 7.8 | 0.00 | 0.00 | 0.00 | 49 | 1007.7 |
| 20260502151504 | 51 | 304 | 1.7 | 5.2 | 0.00 | 0.00 | 0.00 | 53 | 1007.8 |
| 20260502123032 | 48 | 360 | 1.7 | 5.2 | 0.00 | 0.00 | 0.00 | 60 | 1007.7 |
| 20260502121554 | 48 | 264 | 1.7 | 7.0 | 0.00 | 0.00 | 0.00 | 60 | 1007.6 |
| 20260502114544 | 48 | 315 | 0.9 | 13.0 | 0.00 | 0.00 | 0.00 | 62 | 1007.2 |
| 20260502113008 | 48 | 11 | 1.7 | 9.6 | 0.00 | 0.00 | 0.00 | 60 | 1006.7 |
| 20260502111538 | 48 | 346 | 0.9 | 7.8 | 0.00 | 0.00 | 0.00 | 61 | 1006.7 |
| 20260502110003 | 48 | 312 | 3.5 | 10.4 | 0.00 | 0.00 | 0.00 | 57 | 1006.5 |
| 20260502104529 | 49 | 39 | 0.9 | 2.6 | 0.00 | 0.00 | 0.00 | 61 | 1006.8 |
| 20260502103106 | 49 | 3 | 0.0 | 2.6 | 0.00 | 0.00 | 0.00 | 59 | 1006.9 |
| 20260502101525 | 49 | 283 | 0.9 | 7.0 | 0.00 | 0.00 | 0.00 | 60 | 1006.9 |
| 20260502091505 | 50 | 357 | 1.7 | 8.7 | 0.00 | 0.00 | 0.00 | 63 | 1006.6 |
| 20260502070033 | 51 | 299 | 0.0 | 6.1 | 0.00 | 0.00 | 0.00 | 66 | 1006.0 |
| 20260502064555 | 52 | 21 | 1.7 | 11.3 | 0.00 | 0.00 | 0.00 | 65 | 1005.9 |
| 20260502063101 | 52 | 84 | 0.9 | 10.4 | 0.00 | 0.00 | 0.00 | 65 | 1006.1 |
| 20260502061522 | 52 | 342 | 1.7 | 8.7 | 0.00 | 0.00 | 0.00 | 65 | 1006.2 |
| 20260502060046 | 53 | 12 | 1.7 | 9.6 | 0.00 | 0.00 | 0.00 | 64 | 1006.6 |
| 20260502054526 | 53 | 304 | 2.6 | 7.0 | 0.00 | 0.00 | 0.00 | 64 | 1006.4 |
| 20260502053035 | 53 | 317 | 0.0 | 5.2 | 0.00 | 0.00 | 0.00 | 65 | 1006.4 |
| 20260502051502 | 54 | 285 | 0.0 | 7.8 | 0.00 | 0.00 | 0.00 | 66 | 1006.3 |
| 20260502050036 | 54 | 279 | 0.0 | 4.3 | 0.00 | 0.00 | 0.00 | 66 | 1006.3 |
| 20260502044557 | 55 | 347 | 1.7 | 5.2 | 0.00 | 0.00 | 0.00 | 65 | 1006.4 |
| 20260502043020 | 55 | 11 | 0.0 | 6.1 | 0.00 | 0.00 | 0.00 | 65 | 1006.3 |
| 20260502041555 | 55 | 36 | 0.9 | 9.6 | 0.00 | 0.00 | 0.00 | 67 | 1006.2 |
| 20260502040005 | 56 | 322 | 0.9 | 10.4 | 0.00 | 0.00 | 0.00 | 65 | 1006.2 |
| 20260502034532 | 56 | 283 | 0.0 | 5.2 | 0.00 | 0.00 | 0.00 | 66 | 1006.3 |
| 20260502033002 | 57 | 316 | 0.0 | 2.6 | 0.00 | 0.00 | 0.00 | 65 | 1006.0 |
| 20260502031533 | 57 | 302 | 0.0 | 4.3 | 0.00 | 0.00 | 0.00 | 66 | 1005.8 |
| 20260502030003 | 56 | 307 | 0.0 | 3.5 | 0.00 | 0.00 | 0.00 | 70 | 1005.8 |
| 20260502024535 | 56 | 166 | 0.0 | 4.3 | 0.00 | 0.00 | 0.00 | 70 | 1005.5 |
| 20260502023005 | 57 | 160 | 0.0 | 0.9 | 0.00 | 0.00 | 0.00 | 68 | 1005.4 |
| 20260502021538 | 57 | 117 | 0.0 | 3.5 | 0.00 | 0.00 | 0.00 | 66 | 1004.9 |
| 20260502020008 | 57 | 137 | 0.0 | 1.7 | 0.00 | 0.00 | 0.00 | 67 | 1004.5 |
| 20260502014539 | 58 | 137 | 0.0 | 1.7 | 0.00 | 0.00 | 0.00 | 65 | 1004.5 |
| 20260502013009 | 58 | 82 | 0.0 | 1.7 | 0.00 | 0.00 | 0.00 | 64 | 1004.5 |
| 20260502011540 | 58 | 155 | 0.0 | 3.5 | 0.00 | 0.00 | 0.00 | 62 | 1004.4 |
| 20260502010012 | 59 | 150 | 0.0 | 2.6 | 0.00 | 0.00 | 0.00 | 62 | 1004.4 |
| 20260502004540 | 59 | 116 | 0.0 | 1.7 | 0.00 | 0.00 | 0.00 | 60 | 1003.9 |
| 20260502003011 | 59 | 242 | 0.0 | 2.6 | 0.00 | 0.00 | 0.00 | 60 | 1003.8 |
| 20260502001548 | 60 | 200 | 0.0 | 5.2 | 0.00 | 0.00 | 0.00 | 58 | 1003.6 |
| 20260502000011 | 61 | 209 | 0.9 | 4.3 | 0.00 | 0.00 | 0.00 | 56 | 1003.1 |
| 20260501234544 | 61 | 352 | 0.0 | 4.3 | 0.00 | 0.00 | 0.00 | 55 | 1003.0 |
| 20260501233014 | 62 | 203 | 1.7 | 7.0 | 0.00 | 0.00 | 0.00 | 53 | 1003.0 |
| 20260501231545 | 63 | 174 | 2.6 | 11.3 | 0.00 | 0.00 | 0.00 | 50 | 1003.2 |
| 20260501230015 | 64 | 84 | 3.5 | 11.3 | 0.00 | 0.00 | 0.00 | 51 | 1003.0 |
| 20260501224604 | 64 | 146 | 1.7 | 10.4 | 0.00 | 0.00 | 0.00 | 49 | 1003.0 |
| 20260501223014 | 65 | 216 | 3.5 | 13.0 | 0.00 | 0.00 | 0.00 | 49 | 1003.1 |
| 20260501221544 | 65 | 210 | 2.6 | 9.6 | 0.00 | 0.00 | 0.00 | 48 | 1003.2 |
| 20260501220022 | 65 | 162 | 3.5 | 12.2 | 0.00 | 0.00 | 0.00 | 47 | 1003.3 |
| 20260501214538 | 66 | 221 | 1.7 | 9.6 | 0.00 | 0.00 | 0.00 | 46 | 1003.4 |
| 20260501213003 | 66 | 212 | 4.3 | 11.3 | 0.00 | 0.00 | 0.00 | 45 | 1003.5 |
| 20260501211534 | 66 | 179 | 3.5 | 8.7 | 0.00 | 0.00 | 0.00 | 44 | 1003.7 |
| 20260501210103 | 66 | 170 | 3.5 | 13.0 | 0.00 | 0.00 | 0.00 | 47 | 1003.8 |
| 20260501204529 | 66 | 275 | 1.7 | 11.3 | 0.00 | 0.00 | 0.00 | 45 | 1004.0 |
| 20260501203054 | 66 | 274 | 4.3 | 11.3 | 0.00 | 0.00 | 0.00 | 43 | 1004.2 |
| 20260501201524 | 65 | 254 | 5.2 | 11.3 | 0.00 | 0.00 | 0.00 | 45 | 1004.3 |
| 20260501200048 | 65 | 238 | 2.6 | 10.4 | 0.00 | 0.00 | 0.00 | 45 | 1004.7 |
| 20260501194507 | 65 | 228 | 4.3 | 8.7 | 0.00 | 0.00 | 0.00 | 45 | 1004.9 |
| 20260501193035 | 64 | 192 | 1.7 | 8.7 | 0.00 | 0.00 | 0.00 | 43 | 1005.4 |
| 20260501191556 | 64 | 239 | 3.5 | 10.4 | 0.00 | 0.00 | 0.00 | 44 | 1005.7 |
| 20260501190031 | 63 | 140 | 0.9 | 12.2 | 0.00 | 0.00 | 0.00 | 45 | 1005.8 |
| 20260501184546 | 63 | 262 | 1.7 | 10.4 | 0.00 | 0.00 | 0.00 | 43 | 1006.1 |
| 20260501183020 | 63 | 194 | 3.5 | 11.3 | 0.00 | 0.00 | 0.00 | 42 | 1006.4 |
| 20260501181533 | 63 | 227 | 3.5 | 8.7 | 0.00 | 0.00 | 0.00 | 48 | 1006.5 |
| 20260501180055 | 61 | 141 | 2.6 | 10.4 | 0.00 | 0.00 | 0.00 | 51 | 1006.9 |
| 20260501174522 | 61 | 250 | 3.5 | 12.2 | 0.00 | 0.00 | 0.00 | 49 | 1007.0 |
| 20260501173120 | 60 | 232 | 3.5 | 8.7 | 0.00 | 0.00 | 0.00 | 47 | 1007.3 |